Погода в Еруслане

Россия / Саратовская область     51°13′55″N   47°19′09″E
темп.,
°C
ветер,
м/с
пор.,
м/с
влажн.,
%
обл.,
%
осадки,
мм/ч
давл.,
гПа
погр.,
м
23 апреля, пт
пт2301:00+9ююв3677100 0.0 1024122
04:00+8юв35829 0.0 102493
07:00+7вюв3687100 0.0 1024180
10:00+11всв4563100 0.0 1023478
13:00+15всв5552100 0.0 10221124
16:00+14всв5552100 0.0 10201268
19:00+13в3565100 0.1 1019379
22:00+9юв3678100 0.1 1019270
24 апреля, сб
сб2401:00+8юв2281100 0.0 101793
04:00+8в2285100 0.0 101650
07:00+8юв228434 0.0 1015111
10:00+12ююз4465100 0.0 1014750
13:00+15юз675694 0.2 10121599
16:00+17юз71042100 1.1 10112544
19:00+14юз7115698 0.0 1010848
22:00+9зюз7118124 0.6 1011923
25 апреля, вс
вс2501:00+7зюз71478100 0.0 1012958
04:00+5зюз915655 0.0 1013991
07:00+4зюз914675 0.0 10151059
10:00+7з1013575 0.0 10161560
13:00+8з9115118 0.0 10181562
16:00+10з894748 0.0 10191886
19:00+8зсз58534 0.0 10201261
22:00+6зюз3667100 0.0 1021121
26 апреля, пн
пн2601:00+6юз2263100 0.0 102134
04:00+5ююз2262100 0.0 102113
07:00+6ю2462100 0.0 1020109
10:00+10ююв3342100 0.0 1019962
13:00+12ююв3335100 0.0 10171792
16:00+13юв2333100 0.0 10152028
19:00+12юв2343100 0.0 1014102
22:00+10ю2253100 0.0 101313
27 апреля, вт
вт2701:00+9зюз236268 0.0 101254
04:00+7зюз36696 0.0 1012116
07:00+7з598519 0.0 1012440
10:00+7зсз6768100 0.0 1014929
13:00+11з67445 0.0 10131679
16:00+13з71035100 0.0 10132675
19:00+11з7104321 0.0 10141443
22:00+7зюз410554 0.0 1015251